Flag for Canada Weather past 2 weeks in Aklavik, Northwest Territories, Canada

Now
63 °F

Partly sunny.


Feels Like: 63 °F
Forecast: 46 / 65 °F
Wind: 2 mph from North

Location: Inuvik

Current Time: May 22, 2015 at 4:55:15 AM

Latest Report: May 22, 2015 at 4:00 AM


Visibility: 15 mi

Pressure: 29.97 "Hg

Humidity: 42%

Dew point: 39 °F

Location of AklavikLocation

Historic Weather in Aklavik — Graph

°F

Aklavik temperature yesterday

Maximum temperature yesterday: 79 °F (at 5:00 PM)
Minimum temperature yesterday: 43 °F (at 5:00 AM)
Average temperature yesterday: 64 °F

Past Weeks' High & Low Weather Summary

 TemperatureHumidityPressure
High81 °F (May 18, 5:00 PM)100% (May 10, 5:00 AM)30.33 "Hg (May 10, 5:00 AM)
Low25 °F (May 7, 3:00 AM)21% (May 18, 8:00 PM)29.71 "Hg (May 11, 4:00 PM)
Average49 °F55%30.02 "Hg
* Reported May 7 3:00 AM — May 22 3:00 AM, Aklavik, Weather by CustomWeather, © 2015

Note: Actual official high and low records may vary slightly from our data, if they occured in-between our weather recording intervals... More about our weather records

Advertising

Aklavik weather history for previous 24 hours

 ConditionsComfort  
Time TempWeatherWind HumidityBarometerVisibility
3:00 AM
Fri, May 22
63 °FPartly sunny.5 mph39%29.97 "Hg15 mi
2:00 AM66 °FScattered clouds.2 mph37%29.96 "Hg15 mi
1:00 AM70 °FPassing clouds.3 mph33%29.95 "Hg15 mi
12:00 AM72 °FPassing clouds.2 mph29%29.94 "Hg15 mi
11:00 PM
Thu, May 21
73 °FPassing clouds.7 mph27%29.94 "Hg15 mi
10:00 PM75 °FPassing clouds.6 mph25%29.94 "Hg15 mi
9:00 PM77 °FPassing clouds.10 mph24%29.95 "Hg15 mi
8:00 PM79 °FSunny.10 mph24%29.96 "Hg15 mi
7:00 PM79 °FSunny.10 mph24%29.97 "Hg15 mi
6:00 PM79 °FPassing clouds.14 mph23%29.98 "Hg15 mi
5:00 PM79 °FScattered clouds.12 mph26%29.99 "Hg15 mi
4:00 PM77 °FScattered clouds.10 mph28%30.00 "Hg15 mi
3:00 PM77 °FScattered clouds.12 mph30%30.01 "Hg15 mi
2:00 PM75 °FScattered clouds.9 mph34%30.01 "Hg15 mi
1:00 PM73 °FPassing clouds.8 mph36%30.02 "Hg15 mi
12:00 PM70 °FScattered clouds.7 mph40%30.02 "Hg15 mi
11:00 AM66 °FPassing clouds.6 mph46%30.03 "Hg15 mi
10:00 AM61 °FScattered clouds.2 mph55%30.04 "Hg15 mi
9:00 AM55 °FScattered clouds.7 mph59%30.04 "Hg15 mi
8:00 AM50 °FScattered clouds.9 mph67%30.05 "Hg15 mi
7:00 AM46 °FScattered clouds.7 mph76%30.06 "Hg15 mi
6:00 AM46 °FScattered clouds.8 mph76%30.06 "Hg15 mi
5:00 AM43 °FPassing clouds.8 mph81%30.06 "Hg15 mi
4:00 AM46 °FScattered clouds.10 mph71%30.06 "Hg15 mi
Weather by CustomWeather, © 2015

See weather overviewHow to use our weather pages